Location: Unspecified
(63.7467°N, 0.0000°E)
Time: 07:33:52
(UTC+00:00)

FREGAT DEB - Visible Passes

Search period start: 04 April 2026 00:00
Search period end: 14 April 2026 00:00
Orbit: 422 x 3569 km, 51.4° (Epoch: 29 March)

Date Brightness Start Highest point End Pass type
(mag) Time Alt. Az. Time Alt. Az. Time Alt. Az.
4 Apr ? 20:40:07 10° W 20:42:34 11° WSW 20:44:44 10° SW visible
5 Apr ? 19:53:43 10° W 19:59:35 16° WSW 20:03:58 10° SSW visible
8 Apr ? 19:55:49 10° W 19:59:09 12° WSW 20:01:59 10° SW visible
